TimeEST,TemperatureF,Dew PointF,Humidity,Sea Level PressureIn,VisibilityMPH,Wind Direction,Wind SpeedMPH,Gust SpeedMPH,PrecipitationIn,Events,Conditions,WindDirDegrees,DateUTC
12:53 AM,36.0,19.9,52,29.97,10.0,NE,4.6,-,N/A,,Overcast,50,2014-02-26 05:53:00
1:53 AM,35.1,18.0,50,29.95,10.0,East,3.5,-,N/A,,Overcast,90,2014-02-26 06:53:00
2:53 AM,34.0,19.0,54,29.93,10.0,Calm,Calm,-,N/A,,Overcast,0,2014-02-26 07:53:00
3:53 AM,35.1,19.9,54,29.92,10.0,ENE,3.5,-,N/A,,Overcast,60,2014-02-26 08:53:00
4:53 AM,33.1,19.9,59,29.91,10.0,ENE,3.5,-,N/A,,Partly Cloudy,60,2014-02-26 09:53:00
5:53 AM,33.1,19.9,59,29.91,10.0,NE,4.6,-,N/A,,Overcast,40,2014-02-26 10:53:00
6:53 AM,32.0,23.0,69,29.94,10.0,Calm,Calm,-,N/A,,Overcast,0,2014-02-26 11:53:00
7:53 AM,34.0,21.9,61,29.97,10.0,NNW,3.5,-,N/A,,Overcast,330,2014-02-26 12:53:00
8:53 AM,35.1,21.9,59,29.98,10.0,NNW,3.5,-,N/A,,Overcast,330,2014-02-26 13:53:00
9:53 AM,39.0,21.9,50,29.96,10.0,North,8.1,-,N/A,,Clear,350,2014-02-26 14:53:00
10:53 AM,39.0,21.0,49,29.94,10.0,North,11.5,-,N/A,,Clear,350,2014-02-26 15:53:00
11:53 AM,42.1,21.0,43,29.89,10.0,Variable,4.6,-,N/A,,Mostly Cloudy,0,2014-02-26 16:53:00
12:53 PM,44.1,19.9,38,29.86,10.0,NNW,15.0,20.7,N/A,,Partly Cloudy,330,2014-02-26 17:53:00
1:53 PM,46.0,19.0,34,29.82,10.0,WNW,8.1,19.6,N/A,,Clear,300,2014-02-26 18:53:00
2:53 PM,46.9,19.0,33,29.80,10.0,Variable,4.6,-,N/A,,Clear,0,2014-02-26 19:53:00
3:53 PM,46.9,19.0,33,29.79,10.0,North,11.5,-,N/A,,Clear,350,2014-02-26 20:53:00
4:53 PM,45.0,17.1,33,29.80,10.0,NW,10.4,19.6,N/A,,Clear,320,2014-02-26 21:53:00
5:53 PM,42.1,17.1,37,29.80,10.0,NNW,11.5,-,N/A,,Clear,340,2014-02-26 22:53:00
6:53 PM,39.0,15.1,38,29.83,10.0,NW,6.9,-,N/A,,Clear,320,2014-02-26 23:53:00
7:53 PM,36.0,15.1,43,29.85,10.0,NNW,5.8,-,N/A,,Clear,340,2014-02-27 00:53:00
8:53 PM,35.1,14.0,42,29.86,10.0,NNW,8.1,-,N/A,,Clear,340,2014-02-27 01:53:00
9:53 PM,30.9,16.0,54,29.87,10.0,NW,3.5,-,N/A,,Clear,320,2014-02-27 02:53:00
10:53 PM,28.9,12.0,49,29.87,10.0,Calm,Calm,-,N/A,,Clear,0,2014-02-27 03:53:00
11:53 PM,28.9,12.9,51,29.87,10.0,North,6.9,-,N/A,,Clear,350,2014-02-27 04:53:00